STARLINK-32175, 60339

Orbit data source: Space-Track

STARLINK-32175, 60339 is a payload satellite owned by SpaceX/Seattle (US) in LEO that was launched on Fri, 02 Aug 2024 UTC via an FALCON 9 launch vehicle from the Air Force Eastern Test Range (AFETR). Payload-class satellites include a variety of spacecraft equipped with specific instruments for various scientific and technological missions. These include communications satellites like Starlink; space stations such as the ISS; scientific satellites like the Hubble; Earth observation satellites from companies like Planet Labs, Umbra, and HawkEye 360; GPS; miniature CubeSats for education and research; and military/defense satellites.

Loading next visibility...
Identifier
60339, 2024-136L
Orbit
LEO
Country
Flag of USUS
Related business
Manufacturer
SpaceX/Seattle
Mission
Operational Commercial Communications
Bus & Motor
STARLINK V2M, Unknown motor
Mass
730 kg wet, ~700 kg dry
Launch date (UTC)
2024-08-02 (1 year ago)
Launch vehicle
FALCON 9
Launch site
Air Force Eastern Test Range (AFETR)
Object type
Payload
Rocket body
Debris
Shape & HBR
Box + 2 Pan, 17.7 m
Radar Cross Section
33.884 m², Large (>1 m²)

Expand to show TLE details & history
Last TLE update: 1 day ago

TLE from 1 day ago
0 STARLINK-32175
1 60339U 24136L   25294.56605316  .00003364  00000-0  12579-3 0  9994
2 60339  53.1621   1.9129 0001226  83.0125 277.1015 15.30167676 68361
Epoch: 2025-10-21T13:35Z
TLE epoch observation values (Epoch: 2025-10-21T13:35:06.993Z)
Latitude
-0.00001°
Longitude
127.88158°
Altitude
476.108 km
Speed
7.629 km/s
True Right ascension
00h 07m 39s
True Declination
0° 00' 00"
Sunlit
Object was in full shadow at epoch
Visualization orbit readout
Latitude
Unknown
Longitude
Unknown
Altitude
Unknown
Speed
Unknown
Apparent Right ascension
Unknown
Apparent Declination
Unknown
Sunlit
N/A
Visualization observer readout
Local Sidereal Time
09:47:02
Azimuth
Unknown
Elevation
Unknown
Doppler factor
Unknown
Orbital elements
Apogee altitude
476.408 km
Perigee altitude
474.727 km
Semi-major axis
6,853.705 km
Eccentricity
0.00012
Inclination
53.1621°
RAAN
1.9129°
Arg. of periapsis
83.0125°
True anomaly
277.08756°
Mean anomaly
277.1015°
Eccentric anomaly
277.09453°
Mean motion
3.82521 °/min
Orbital period
94.11 mins
BSTAR
0.00012579
Loading maneuver chart data...
Computing Atmospheric mass density...
Loading historical data...
Loading historical data...
Loading historical data...
Loading historical data...
Loading historical data...
Loading historical data...
Loading historical data...

Documentation

Showing up to 5 results
|